Le nostre stazioni meteo in Italia

Pubblicità
Il mio iltempo24.it
Elphin, Gran Bretagna (99153): Temperatura & dewpoint: 17.10.2017 03:00:00 - 23.10.2017 03:00:00 (BST)Elphin, Gran Bretagna (99153): precipitazioni: 17.10.2017 03:00:00 - 23.10.2017 03:00:00 (BST)
Data & Tempo tt [°C] td [°C] rr [mm]
23.10.2017 03:00:00 5,2 4,4 -
23.10.2017 02:00:00 3,6 3,4 0,0
23.10.2017 01:00:00 3,7 3,1 0,0
23.10.2017 00:00:00 5,2 4,0 0,0
22.10.2017 23:00:00 6,4 5,3 0,2
22.10.2017 22:00:00 7,9 7,0 0,0
22.10.2017 21:00:00 8,3 7,6 0,2
22.10.2017 20:00:00 8,5 8,0 -
22.10.2017 19:00:00 8,7 8,5 1,8
22.10.2017 18:00:00 9,2 8,8 0,6
22.10.2017 17:00:00 9,2 8,7 1,0
22.10.2017 16:00:00 10,3 9,8 0,0
22.10.2017 15:00:00 10,6 9,8 0,0
22.10.2017 14:00:00 10,0 9,6 2,8
22.10.2017 13:00:00 11,0 10,5 -
22.10.2017 12:00:00 10,6 9,3 1,2
22.10.2017 11:00:00 11,0 10,8 1,4
22.10.2017 10:00:00 11,0 10,7 1,2
22.10.2017 09:00:00 10,0 9,7 0,0
22.10.2017 08:00:00 9,2 9,1 0,0
22.10.2017 07:00:00 9,2 9,0 -
22.10.2017 06:00:00 8,7 8,4 0,0
22.10.2017 05:00:00 - - 0,0
22.10.2017 04:00:00 9,7 9,3 0,0
22.10.2017 03:00:00 10,0 9,3 0,0
22.10.2017 02:00:00 10,0 9,4 0,0
22.10.2017 01:00:00 10,3 9,4 0,0
22.10.2017 00:00:00 10,2 9,4 -
21.10.2017 23:00:00 10,4 9,4 0,0
21.10.2017 22:00:00 10,0 9,2 0,0
21.10.2017 21:00:00 9,7 8,8 -
21.10.2017 20:00:00 9,3 8,4 0,0
21.10.2017 19:00:00 9,6 8,2 0,0
21.10.2017 18:00:00 10,1 8,9 0,0
21.10.2017 17:00:00 11,5 9,5 0,0
21.10.2017 16:00:00 12,7 10,0 0,0
21.10.2017 15:00:00 13,5 9,7 0,0
21.10.2017 14:00:00 13,1 10,3 0,0
21.10.2017 13:00:00 12,9 9,5 0,0
21.10.2017 12:00:00 11,1 9,6 0,0
21.10.2017 11:00:00 11,0 9,6 0,0
21.10.2017 10:00:00 9,9 8,9 0,0
21.10.2017 09:00:00 9,4 8,5 0,0
21.10.2017 08:00:00 9,2 8,2 0,0
21.10.2017 07:00:00 - - -
21.10.2017 06:00:00 - - -
21.10.2017 05:00:00 - - -
21.10.2017 04:00:00 - - -
21.10.2017 03:00:00 - - -
21.10.2017 02:00:00 - - -
21.10.2017 01:00:00 - - -
21.10.2017 00:00:00 - - -
20.10.2017 23:00:00 - - -
20.10.2017 22:00:00 - - -
20.10.2017 21:00:00 - - 0,0
20.10.2017 20:00:00 10,9 10,1 0,0
20.10.2017 19:00:00 11,2 10,4 0,0
20.10.2017 18:00:00 10,9 10,0 0,0
20.10.2017 17:00:00 11,2 9,8 0,0
20.10.2017 16:00:00 12,4 10,1 0,0
20.10.2017 15:00:00 11,9 10,3 0,0
20.10.2017 14:00:00 11,5 10,4 0,0
20.10.2017 13:00:00 10,7 10,5 0,0
20.10.2017 12:00:00 10,7 10,6 0,2
20.10.2017 11:00:00 10,6 10,5 0,6
20.10.2017 10:00:00 10,7 10,6 0,4
20.10.2017 09:00:00 10,7 10,6 0,4
20.10.2017 08:00:00 10,6 10,5 0,0
20.10.2017 07:00:00 10,5 10,4 0,4
20.10.2017 06:00:00 10,0 9,9 0,6
20.10.2017 05:00:00 9,7 9,6 0,2
20.10.2017 04:00:00 9,9 9,5 0,2
20.10.2017 03:00:00 10,3 10,0 0,2
20.10.2017 02:00:00 10,5 10,1 0,6
20.10.2017 01:00:00 10,6 10,2 1,0
20.10.2017 00:00:00 10,7 10,3 1,0
19.10.2017 23:00:00 10,9 10,4 1,2
19.10.2017 22:00:00 11,0 10,3 0,4
19.10.2017 21:00:00 11,6 10,1 0,0
19.10.2017 20:00:00 12,3 9,9 0,0
19.10.2017 19:00:00 11,9 10,0 0,0
19.10.2017 18:00:00 11,8 10,0 0,0
19.10.2017 17:00:00 12,5 10,0 0,0
19.10.2017 16:00:00 12,7 10,0 0,0
19.10.2017 15:00:00 12,5 9,6 0,0
19.10.2017 14:00:00 12,4 9,5 0,0
19.10.2017 13:00:00 - - -
19.10.2017 12:00:00 - - -
19.10.2017 11:00:00 - - -
19.10.2017 10:00:00 - - -
19.10.2017 09:00:00 - - -
19.10.2017 08:00:00 - - -
19.10.2017 07:00:00 - - -
19.10.2017 06:00:00 - - -
19.10.2017 05:00:00 - - -
19.10.2017 04:00:00 - - -
19.10.2017 03:00:00 - - -
19.10.2017 02:00:00 - - -
19.10.2017 01:00:00 - - -
19.10.2017 00:00:00 - - -
18.10.2017 23:00:00 - - -
18.10.2017 22:00:00 - - -
18.10.2017 21:00:00 - - -
18.10.2017 20:00:00 - - -
18.10.2017 19:00:00 - - -
18.10.2017 18:00:00 - - -
18.10.2017 17:00:00 - - -
18.10.2017 16:00:00 - - -
18.10.2017 15:00:00 - - -
18.10.2017 14:00:00 - - -
18.10.2017 13:00:00 - - -
18.10.2017 12:00:00 - - -
18.10.2017 11:00:00 - - -
18.10.2017 10:00:00 - - -
18.10.2017 09:00:00 - - -
18.10.2017 08:00:00 - - -
18.10.2017 07:00:00 - - -
18.10.2017 06:00:00 - - -
18.10.2017 05:00:00 - - -
18.10.2017 04:00:00 - - -
18.10.2017 03:00:00 - - -
18.10.2017 02:00:00 - - -
18.10.2017 01:00:00 - - -
18.10.2017 00:00:00 - - -
17.10.2017 23:00:00 - - -
17.10.2017 22:00:00 - - -
17.10.2017 21:00:00 - - -
17.10.2017 20:00:00 - - -
17.10.2017 19:00:00 - - -
17.10.2017 18:00:00 - - -
17.10.2017 17:00:00 - - -
17.10.2017 16:00:00 - - -
17.10.2017 15:00:00 - - -
17.10.2017 14:00:00 - - -
17.10.2017 13:00:00 9,9 7,7 0,0
17.10.2017 12:00:00 10,1 7,9 0,0
17.10.2017 11:00:00 10,2 8,7 0,0
17.10.2017 10:00:00 10,5 9,5 0,2
17.10.2017 09:00:00 10,8 10,3 0,2
17.10.2017 08:00:00 11,1 10,9 0,4
17.10.2017 07:00:00 10,8 10,6 1,4
17.10.2017 06:00:00 10,4 10,1 0,2
17.10.2017 05:00:00 9,9 9,6 0,2
17.10.2017 04:00:00 10,6 9,9 0,6
17.10.2017 03:00:00 10,6 10,0 1,0

tt = Temperatura
td = dewpoint
rr = precipitazioni

Stazioni seguenti

WeatherPro
AMSI
MeteoEarth